Lubbock, TX

6:37 AM CST on November 20, 2019 (GMT -0600)
Lubbock International

Weather History for KLBB - October, 2019

Change the Weather History Date:

Monday, October 21, 2019

  Actual Average Record
Temperature  
Mean Temperature 52 °F 60 °F  
Max Temperature 71 °F 74 °F 90 °F (2003)
Min Temperature 34 °F 46 °F 26 °F (1917)
Degree Days  
Heating Degree Days 12 6  
Month to date heating degree days 84 84  
Since 1 July heating degree days 84 107  
Cooling Degree Days 0 1  
Month to date cooling degree days 59 46  
Year to date cooling degree days 2160 1795  
Growing Degree Days 2 (Base 50)    
Moisture  
Dew Point 16 °F    
Average Humidity 28    
Maximum Humidity 50    
Minimum Humidity 10    
Precipitation  
Precipitation 0.00 in 0.07 in 2.91 in (1969)
Month to date precipitation 1.10 1.42  
Year to date precipitation 22.66 17.00  
Snow  
Snow - 0.00 in 4.10 in (1911)
Month to date snowfall 0.0 0.0  
Since 1 July snowfall 0.0 0.0  
Since 1 September snowfall 0.0 0.0  
Snow Depth 0.00 in    
Sea Level Pressure  
Sea Level Pressure 29.91 in    
Wind  
Wind Speed 8 mph ()    
Max Wind Speed 24 mph    
Max Gust Speed 33 mph    
Visibility 10.0 miles    
Events      
T = Trace of Precipitation, MM = Missing Value Source: Averaged Metar Reports

Daily Weather History Graph

Daily Weather History Graph

Search for Another Location

Airport or City:

Astronomy

Oct. 21, 2019 Rise Set
Actual Time 7:56 AM CDT 7:06 PM CDT
Civil Twilight 7:31 AM CDT 7:31 PM CDT
Nautical Twilight 7:02 AM CDT 8:00 PM CDT
Astronomical Twilight 6:33 AM CDT 8:29 PM CDT
Moon 12:29 AM CDT (10/21) 3:06 PM CDT (10/21)
Length of Visible Light 12h 00m
Length of Day
11h 09m
Waning Gibbous, 48% of the Moon is Illuminated
Oct 21
Waning Gibbous
Oct 27
New
Nov 4
First Quarter
Nov 12
Full
Nov 19
Last Quarter

Hourly Weather History & Observations

Time (CDT) Temp. Windchill Dew Point Humidity Pressure Visibility Wind Dir Wind Speed Gust Speed Precip Events Conditions
12:53 AM 52.0 °F - 12.0 °F 20% 29.75 in 10.0 mi NW 13.8 mph - N/A   Clear
1:53 AM 46.9 °F - 15.1 °F 28% 29.76 in 10.0 mi NW 9.2 mph - N/A   Clear
2:53 AM 44.1 °F 40.1 °F 14.0 °F 30% 29.78 in 10.0 mi NW 6.9 mph - N/A   Clear
3:53 AM 39.9 °F 35.8 °F 17.1 °F 40% 29.82 in 10.0 mi West 5.8 mph - N/A   Clear
4:53 AM 37.9 °F 32.7 °F 17.1 °F 43% 29.84 in 10.0 mi WNW 6.9 mph - N/A   Clear
5:53 AM 36.0 °F 31.1 °F 18.0 °F 48% 29.89 in 10.0 mi West 5.8 mph - N/A   Clear
6:53 AM 35.1 °F 30.1 °F 18.0 °F 50% 29.91 in 10.0 mi West 5.8 mph - N/A   Clear
7:53 AM 35.1 °F 31.0 °F 18.0 °F 50% 29.92 in 10.0 mi WNW 4.6 mph - N/A   Clear
8:53 AM 41.0 °F 37.1 °F 18.0 °F 40% 29.94 in 10.0 mi WSW 5.8 mph - N/A   Clear
9:53 AM 51.1 °F - 15.1 °F 24% 29.96 in 10.0 mi West 5.8 mph - N/A   Clear
10:53 AM 55.9 °F - 14.0 °F 19% 29.95 in 10.0 mi Variable 4.6 mph - N/A   Clear
11:53 AM 60.1 °F - 10.9 °F 14% 29.94 in 10.0 mi WSW 9.2 mph - N/A   Partly Cloudy
12:53 PM 61.0 °F - 12.0 °F 15% 29.92 in 10.0 mi SW 9.2 mph - N/A   Partly Cloudy
1:53 PM 66.9 °F - 9.0 °F 10% 29.88 in 10.0 mi West 17.3 mph 24.2 mph N/A   Partly Cloudy
2:53 PM 69.1 °F - 10.9 °F 11% 29.85 in 10.0 mi WNW 16.1 mph 26.5 mph N/A   Partly Cloudy
3:53 PM 70.0 °F - 12.0 °F 11% 29.85 in 10.0 mi NW 18.4 mph - N/A   Partly Cloudy
4:53 PM 71.1 °F - 12.9 °F 11% 29.87 in 10.0 mi NW 18.4 mph 25.3 mph N/A   Partly Cloudy
5:53 PM 69.1 °F - 12.0 °F 11% 29.88 in 10.0 mi NNW 15.0 mph 25.3 mph N/A   Clear
7:53 PM 53.1 °F - 19.9 °F 27% 29.99 in 10.0 mi ENE 9.2 mph - N/A   Partly Cloudy
8:53 PM 51.1 °F - 21.0 °F 31% 30.02 in 10.0 mi ESE 5.8 mph - N/A   Clear
9:53 PM 48.0 °F - 21.0 °F 34% 30.02 in 10.0 mi ESE 8.1 mph - N/A   Clear
10:53 PM 48.9 °F - 21.0 °F 33% 30.04 in 10.0 mi East 5.8 mph - N/A   Clear
11:53 PM 46.0 °F 42.5 °F 19.9 °F 35% 30.07 in 10.0 mi East 6.9 mph - N/A   Clear